Location: *
(37.4917°N, 71.5558°E)
Time: 06:57:48
(UTC+00:00)

Cosmos 1943 - Pass Details

Date: 09 April 2020
Orbit: 832 x 851 km, 71.0° (Epoch: 03 June)

Event Time Altitude Azimuth Distance (km) Brightness Sun altitude
Rises 13:59:02 0° 205° (SSW) 3,375 6.5 -3.8°
Reaches altitude 10° 14:01:28 10° 207° (SSW) 2,447 5.8 -4.2°
Maximum altitude 14:07:04 76° 292° (WNW) 871 3.5 -5.3°
Drops below altitude 10° 14:12:46 10° 19° (NNE) 2,474 5.6 -6.4°
Sets 14:15:14 0° 21° (NNE) 3,416 6.3 -6.9°
